Time,TemperatureF,DewpointF,PressureIn,WindDirection,WindDirectionDegrees,WindSpeedMPH,WindSpeedGustMPH,Humidity,HourlyPrecipIn,Conditions,Clouds,dailyrainin,SoftwareType,DateUTC
2013-09-20 00:14:00,67.0,-99.9,-100.00,North,0,0.0,3.0,-999,-99.99,,,-99.99,,2013-09-20 04:14:00,
2013-09-20 00:24:00,67.0,-99.9,-100.00,North,0,0.0,3.0,-999,-99.99,,,-99.99,,2013-09-20 04:24:00,
2013-09-20 00:34:00,67.0,-99.9,-100.00,North,0,0.0,3.0,-999,-99.99,,,-99.99,,2013-09-20 04:34:00,
2013-09-20 00:40:00,67.0,-99.9,-100.00,SSE,150,2.0,3.0,-999,-99.99,,,-99.99,,2013-09-20 04:40:00,
2013-09-20 01:13:00,67.0,-99.9,-100.00,SSE,150,2.0,3.0,-999,-99.99,,,-99.99,,2013-09-20 05:13:00,
2013-09-20 01:23:00,67.0,-99.9,-100.00,SSE,150,2.0,3.0,-999,-99.99,,,-99.99,,2013-09-20 05:23:00,
2013-09-20 01:34:00,67.0,-99.9,-100.00,SSE,150,2.0,3.0,-999,-99.99,,,-99.99,,2013-09-20 05:34:00,
2013-09-20 01:40:00,68.0,-99.9,-100.00,North,0,0.0,2.0,-999,-99.99,,,-99.99,,2013-09-20 05:40:00,
2013-09-20 02:12:00,68.0,-99.9,-100.00,North,0,0.0,2.0,-999,-99.99,,,-99.99,,2013-09-20 06:12:00,
2013-09-20 02:22:00,68.0,-99.9,-100.00,North,0,0.0,2.0,-999,-99.99,,,-99.99,,2013-09-20 06:22:00,
2013-09-20 02:33:00,68.0,-99.9,-100.00,North,0,0.0,2.0,-999,-99.99,,,-99.99,,2013-09-20 06:33:00,
2013-09-20 02:40:00,66.0,-99.9,-100.00,North,0,0.0,1.0,-999,-99.99,,,-99.99,,2013-09-20 06:40:00,
2013-09-20 03:12:00,66.0,-99.9,-100.00,North,0,0.0,1.0,-999,-99.99,,,-99.99,,2013-09-20 07:12:00,
2013-09-20 03:23:00,66.0,-99.9,-100.00,North,0,0.0,1.0,-999,-99.99,,,-99.99,,2013-09-20 07:23:00,
2013-09-20 03:32:00,66.0,-99.9,-100.00,North,0,0.0,1.0,-999,-99.99,,,-99.99,,2013-09-20 07:32:00,
2013-09-20 03:40:00,64.0,-99.9,-100.00,SSW,200,1.0,3.0,-999,-99.99,,,-99.99,,2013-09-20 07:40:00,
2013-09-20 04:12:00,64.0,-99.9,-100.00,SSW,200,1.0,3.0,-999,-99.99,,,-99.99,,2013-09-20 08:12:00,
2013-09-20 04:22:00,64.0,-99.9,-100.00,SSW,200,1.0,3.0,-999,-99.99,,,-99.99,,2013-09-20 08:22:00,
2013-09-20 04:32:00,64.0,-99.9,-100.00,SSW,200,1.0,3.0,-999,-99.99,,,-99.99,,2013-09-20 08:32:00,
2013-09-20 04:40:00,63.0,-99.9,-100.00,South,190,1.0,3.0,-999,-99.99,,,-99.99,,2013-09-20 08:40:00,
2013-09-20 05:12:00,63.0,-99.9,-100.00,South,190,1.0,3.0,-999,-99.99,,,-99.99,,2013-09-20 09:12:00,
2013-09-20 05:22:00,63.0,-99.9,-100.00,South,190,1.0,3.0,-999,-99.99,,,-99.99,,2013-09-20 09:22:00,
2013-09-20 05:33:00,63.0,-99.9,-100.00,South,190,1.0,3.0,-999,-99.99,,,-99.99,,2013-09-20 09:33:00,
2013-09-20 05:40:00,64.0,-99.9,-100.00,SE,140,1.0,2.0,-999,-99.99,,,-99.99,,2013-09-20 09:40:00,
2013-09-20 06:13:00,64.0,-99.9,-100.00,SE,140,1.0,2.0,-999,-99.99,,,-99.99,,2013-09-20 10:13:00,
2013-09-20 06:23:00,64.0,-99.9,-100.00,SE,140,1.0,2.0,-999,-99.99,,,-99.99,,2013-09-20 10:23:00,
2013-09-20 06:32:00,64.0,-99.9,-100.00,SE,140,1.0,2.0,-999,-99.99,,,-99.99,,2013-09-20 10:32:00,
2013-09-20 06:40:00,63.0,-99.9,-100.00,North,0,0.0,2.0,-999,-99.99,,,-99.99,,2013-09-20 10:40:00,
2013-09-20 07:12:00,63.0,-99.9,-100.00,North,0,0.0,2.0,-999,-99.99,,,-99.99,,2013-09-20 11:12:00,
2013-09-20 07:23:00,63.0,-99.9,-100.00,North,0,0.0,2.0,-999,-99.99,,,-99.99,,2013-09-20 11:23:00,
2013-09-20 07:33:00,63.0,-99.9,-100.00,North,0,0.0,2.0,-999,-99.99,,,-99.99,,2013-09-20 11:33:00,
2013-09-20 07:40:00,64.0,-99.9,-100.00,North,0,0.0,0.0,-999,-99.99,,,-99.99,,2013-09-20 11:40:00,
2013-09-20 08:12:00,64.0,-99.9,-100.00,North,0,0.0,0.0,-999,-99.99,,,-99.99,,2013-09-20 12:12:00,
2013-09-20 08:22:00,64.0,-99.9,-100.00,North,0,0.0,0.0,-999,-99.99,,,-99.99,,2013-09-20 12:22:00,
2013-09-20 08:32:00,64.0,-99.9,-100.00,North,0,0.0,0.0,-999,-99.99,,,-99.99,,2013-09-20 12:32:00,
2013-09-20 08:40:00,66.0,-99.9,-100.00,SSE,160,2.0,2.0,-999,-99.99,,,-99.99,,2013-09-20 12:40:00,
2013-09-20 09:12:00,66.0,-99.9,-100.00,SSE,160,2.0,2.0,-999,-99.99,,,-99.99,,2013-09-20 13:12:00,
2013-09-20 09:22:00,66.0,-99.9,-100.00,SSE,160,2.0,2.0,-999,-99.99,,,-99.99,,2013-09-20 13:22:00,
2013-09-20 09:32:00,66.0,-99.9,-100.00,SSE,160,2.0,2.0,-999,-99.99,,,-99.99,,2013-09-20 13:32:00,
2013-09-20 09:40:00,72.0,-99.9,-100.00,North,0,0.0,3.0,-999,-99.99,,,-99.99,,2013-09-20 13:40:00,
2013-09-20 10:11:00,72.0,-99.9,-100.00,North,0,0.0,3.0,-999,-99.99,,,-99.99,,2013-09-20 14:11:00,
2013-09-20 10:22:00,72.0,-99.9,-100.00,North,0,0.0,3.0,-999,-99.99,,,-99.99,,2013-09-20 14:22:00,
2013-09-20 10:32:00,72.0,-99.9,-100.00,North,0,0.0,3.0,-999,-99.99,,,-99.99,,2013-09-20 14:32:00,
2013-09-20 10:40:00,76.0,-99.9,-100.00,NE,40,1.0,3.0,-999,-99.99,,,-99.99,,2013-09-20 14:40:00,
2013-09-20 11:12:00,76.0,-99.9,-100.00,NE,40,1.0,3.0,-999,-99.99,,,-99.99,,2013-09-20 15:12:00,
2013-09-20 11:22:00,76.0,-99.9,-100.00,NE,40,1.0,3.0,-999,-99.99,,,-99.99,,2013-09-20 15:22:00,
2013-09-20 11:33:00,76.0,-99.9,-100.00,NE,40,1.0,3.0,-999,-99.99,,,-99.99,,2013-09-20 15:33:00,
2013-09-20 11:40:00,76.0,-99.9,-100.00,NNW,340,6.0,6.0,-999,-99.99,,,-99.99,,2013-09-20 15:40:00,
2013-09-20 12:13:00,76.0,-99.9,-100.00,NNW,340,6.0,6.0,-999,-99.99,,,-99.99,,2013-09-20 16:13:00,
2013-09-20 12:23:00,76.0,-99.9,-100.00,NNW,340,6.0,6.0,-999,-99.99,,,-99.99,,2013-09-20 16:23:00,
2013-09-20 12:40:00,79.0,-99.9,-100.00,NW,320,6.0,7.0,-999,-99.99,,,-99.99,,2013-09-20 16:40:00,
2013-09-20 13:13:00,79.0,-99.9,-100.00,NW,320,6.0,7.0,-999,-99.99,,,-99.99,,2013-09-20 17:13:00,
2013-09-20 13:24:00,79.0,-99.9,-100.00,NW,320,6.0,7.0,-999,-99.99,,,-99.99,,2013-09-20 17:24:00,
2013-09-20 13:34:00,79.0,-99.9,-100.00,NW,320,6.0,7.0,-999,-99.99,,,-99.99,,2013-09-20 17:34:00,
2013-09-20 13:40:00,80.0,-99.9,-100.00,NNW,340,5.0,6.0,-999,-99.99,,,-99.99,,2013-09-20 17:40:00,
2013-09-20 14:12:00,80.0,-99.9,-100.00,NNW,340,5.0,6.0,-999,-99.99,,,-99.99,,2013-09-20 18:12:00,
2013-09-20 14:22:00,80.0,-99.9,-100.00,NNW,340,5.0,6.0,-999,-99.99,,,-99.99,,2013-09-20 18:22:00,
2013-09-20 14:32:00,80.0,-99.9,-100.00,NNW,340,5.0,6.0,-999,-99.99,,,-99.99,,2013-09-20 18:32:00,
2013-09-20 14:40:00,82.0,-99.9,-100.00,North,360,5.0,6.0,-999,-99.99,,,-99.99,,2013-09-20 18:40:00,
2013-09-20 15:12:00,82.0,-99.9,-100.00,North,360,5.0,6.0,-999,-99.99,,,-99.99,,2013-09-20 19:12:00,
2013-09-20 15:22:00,82.0,-99.9,-100.00,North,360,5.0,6.0,-999,-99.99,,,-99.99,,2013-09-20 19:22:00,
2013-09-20 15:32:00,82.0,-99.9,-100.00,North,360,5.0,6.0,-999,-99.99,,,-99.99,,2013-09-20 19:32:00,
2013-09-20 15:40:00,82.0,-99.9,-100.00,NNW,330,6.0,7.0,-999,-99.99,,,-99.99,,2013-09-20 19:40:00,
2013-09-20 16:12:00,82.0,-99.9,-100.00,NNW,330,6.0,7.0,-999,-99.99,,,-99.99,,2013-09-20 20:12:00,
2013-09-20 16:22:00,82.0,-99.9,-100.00,NNW,330,6.0,7.0,-999,-99.99,,,-99.99,,2013-09-20 20:22:00,
2013-09-20 16:32:00,82.0,-99.9,-100.00,NNW,330,6.0,7.0,-999,-99.99,,,-99.99,,2013-09-20 20:32:00,
2013-09-20 16:40:00,84.0,-99.9,-100.00,North,350,3.0,5.0,-999,-99.99,,,-99.99,,2013-09-20 20:40:00,
2013-09-20 17:12:00,84.0,-99.9,-100.00,North,350,3.0,5.0,-999,-99.99,,,-99.99,,2013-09-20 21:12:00,
2013-09-20 17:22:00,84.0,-99.9,-100.00,North,350,3.0,5.0,-999,-99.99,,,-99.99,,2013-09-20 21:22:00,
2013-09-20 17:34:00,84.0,-99.9,-100.00,North,350,3.0,5.0,-999,-99.99,,,-99.99,,2013-09-20 21:34:00,
2013-09-20 17:40:00,90.0,-99.9,-100.00,North,0,0.0,2.0,-999,-99.99,,,-99.99,,2013-09-20 21:40:00,
2013-09-20 18:14:00,90.0,-99.9,-100.00,North,0,0.0,2.0,-999,-99.99,,,-99.99,,2013-09-20 22:14:00,
2013-09-20 18:24:00,90.0,-99.9,-100.00,North,0,0.0,2.0,-999,-99.99,,,-99.99,,2013-09-20 22:24:00,
2013-09-20 18:33:00,90.0,-99.9,-100.00,North,0,0.0,2.0,-999,-99.99,,,-99.99,,2013-09-20 22:33:00,
2013-09-20 18:40:00,89.0,-99.9,-100.00,North,0,0.0,1.0,-999,-99.99,,,-99.99,,2013-09-20 22:40:00,
2013-09-20 19:13:00,89.0,-99.9,-100.00,North,0,0.0,1.0,-999,-99.99,,,-99.99,,2013-09-20 23:13:00,
2013-09-20 19:23:00,89.0,-99.9,-100.00,North,0,0.0,1.0,-999,-99.99,,,-99.99,,2013-09-20 23:23:00,
2013-09-20 19:34:00,89.0,-99.9,-100.00,North,0,0.0,1.0,-999,-99.99,,,-99.99,,2013-09-20 23:34:00,
2013-09-20 19:40:00,79.0,-99.9,-100.00,North,0,0.0,1.0,-999,-99.99,,,-99.99,,2013-09-20 23:40:00,
2013-09-20 20:12:00,79.0,-99.9,-100.00,North,0,0.0,1.0,-999,-99.99,,,-99.99,,2013-09-21 00:12:00,
2013-09-20 20:22:00,79.0,-99.9,-100.00,North,0,0.0,1.0,-999,-99.99,,,-99.99,,2013-09-21 00:22:00,
2013-09-20 20:33:00,79.0,-99.9,-100.00,North,0,0.0,1.0,-999,-99.99,,,-99.99,,2013-09-21 00:33:00,
2013-09-20 20:40:00,75.0,-99.9,-100.00,South,180,2.0,2.0,-999,-99.99,,,-99.99,,2013-09-21 00:40:00,
2013-09-20 21:12:00,75.0,-99.9,-100.00,South,180,2.0,2.0,-999,-99.99,,,-99.99,,2013-09-21 01:12:00,
2013-09-20 21:22:00,75.0,-99.9,-100.00,South,180,2.0,2.0,-999,-99.99,,,-99.99,,2013-09-21 01:22:00,
2013-09-20 21:32:00,75.0,-99.9,-100.00,South,180,2.0,2.0,-999,-99.99,,,-99.99,,2013-09-21 01:32:00,
2013-09-20 21:40:00,73.0,-99.9,-100.00,North,0,0.0,2.0,-999,-99.99,,,-99.99,,2013-09-21 01:40:00,
2013-09-20 22:12:00,73.0,-99.9,-100.00,North,0,0.0,2.0,-999,-99.99,,,-99.99,,2013-09-21 02:12:00,
2013-09-20 22:22:00,73.0,-99.9,-100.00,North,0,0.0,2.0,-999,-99.99,,,-99.99,,2013-09-21 02:22:00,
2013-09-20 22:32:00,73.0,-99.9,-100.00,North,0,0.0,2.0,-999,-99.99,,,-99.99,,2013-09-21 02:32:00,
2013-09-20 22:40:00,71.0,-99.9,-100.00,South,190,1.0,3.0,-999,-99.99,,,-99.99,,2013-09-21 02:40:00,
2013-09-20 23:12:00,71.0,-99.9,-100.00,South,190,1.0,3.0,-999,-99.99,,,-99.99,,2013-09-21 03:12:00,
2013-09-20 23:22:00,71.0,-99.9,-100.00,South,190,1.0,3.0,-999,-99.99,,,-99.99,,2013-09-21 03:22:00,
2013-09-20 23:34:00,71.0,-99.9,-100.00,South,190,1.0,3.0,-999,-99.99,,,-99.99,,2013-09-21 03:34:00,
2013-09-20 23:40:00,70.0,-99.9,-100.00,South,190,1.0,3.0,-999,-99.99,,,-99.99,,2013-09-21 03:40:00,